Wind_Speed
15 13 12 13 15 19 20 21 18 16 15 15 13 9 11 10 11 13 13 12 11 13 13 13 14 14 13 16 15 13 10 9 7 5 7 8 5 5 5 2 2 2 3
20 19 17 17 16 18 20 20 22 19 18 17 17 13 15 13 11 11 12 12 12 14 16 16 15 14 16 16 14 11 11 10 6 3 6 6 6 7 8 8 8 6 5
25 23 21 21 21 20 19 21 23 22 21 17 17 17 16 15 15 13 13 12 11 14 15 14 12 13 11 11 12 12 12 10 8 8 9 9 7 11 11 9 8 9 8
23 30 24 24 24 23 21 22 23 23 22 20 19 19 19 18 18 16 15 15 13 14 13 14 15 13 11 10 10 12 13 12 11 10 9 11 11 11 12 11 11 11 12
26 32 29 24 26 26 25 25 25 25 24 23 23 23 21 19 19 19 16 15 15 15 14 15 16 15 12 9 8 9 13 14 13 12 12 11 13 14 12 13 13 11 13
30 28 28 26 24 26 22 22 25 25 23 25 22 21 22 21 21 18 16 16 17 18 17 17 19 19 14 13 10 11 13 14 13 13 14 14 14 14 16 15 15 16 17
28 32 29 25 32 27 24 24 22 22 19 20 22 24 23 24 21 18 17 16 17 17 19 19 18 19 15 15 16 16 15 14 17 17 17 17 17 17 18 18 17 18 18
25 27 21 29 32 29 21 23 20 17 18 20 23 23 30 27 25 21 24 22 22 19 20 20 20 21 19 17 17 16 16 17 19 19 20 19 19 19 20 19 20 22 24
27 29 36 24 28 27 28 25 25 23 23 24 20 28 25 21 22 22 24 27 25 23 23 26 27 27 20 18 20 20 19 17 17 19 20 21 21 21 22 24 26 27 28
10 12 23 22 22 19 21 25 27 28 29 29 28 31 28 28 22 23 25 28 28 28 29 27 26 21 22 22 19 19 18 18 19 20 20 19 21 22 23 25 25 27 28
19 7 14 13 9 6 1 4 8 11 17 20 18 17 23 25 16 16 20 23 21 22 25 22 23 26 26 22 22 22 22 24 25 27 28 28 28 28 27 21 22 21 25
11 10 6 6 5 8 11 14 14 11 13 13 15 16 14 12 15 14 13 13 17 16 16 19 20 21 23 23 25 25 24 24 24 22 18 19 21 24 20 15 20 20 19
3 4 10 8 5 6 8 8 8 8 7 9 9 11 13 12 12 10 8 8 9 12 12 11 13 14 15 17 21 22 20 19 19 17 18 16 17 15 20 20 22 24 25
7 8 7 7 9 10 8 8 8 9 10 12 11 11 11 11 11 10 10 8 7 7 7 7 9 10 12 14 13 13 15 16 18 19 18 18 20 23 24 30 27 28 26
13 11 10 11 11 11 12 12 11 9 9 9 9 8 8 8 8 9 9 10 10 9 9 11 12 13 13 13 13 14 15 16 17 17 18 19 20 21 21 22 23 22 22
9 11 13 13 12 11 11 11 11 10 11 12 12 13 14 13 12 12 12 12 11 11 11 12 12 12 13 13 15 15 15 16 16 15 16 17 18 19 19 19 20 20 21
9 9 10 10 10 11 11 11 10 10 9 9 10 10 10 9 9 8 7 7 7 8 9 9 9 10 10 11 11 11 11 12 13 14 14 15 14 14 15 15 16 16 17
7 7 7 7 8 9 9 8 9 9 8 8 8 7 7 6 5 5 5 5 5 6 7 7 8 8 8 8 9 9 9 9 9 9 9 10 11 11 12 12 12 12 13
5 6 6 6 6 7 8 8 7 6 7 6 6 6 5 4 3 3 3 4 4 5 5 6 7 7 8 8 9 9 9 9 10 10 10 10 11 11 12 12 13 13 14
6 5 7 7 6 7 7 7 7 7 7 6 6 5 5 4 5 5 5 5 6 7 7 7 7 7 7 7 7 8 9 10 11 11 12 12 13 14 15 15 16 16 16
5 5 7 8 9 7 5 5 6 8 7 7 7 8 8 7 7 6 7 8 8 10 11 10 9 9 9 9 9 9 10 11 13 13 14 15 16 16 16 17 18 17 17
6 8 8 8 8 8 8 7 7 7 8 8 9 9 10 10 10 8 8 10 11 12 12 10 9 9 10 11 11 12 13 15 16 16 16 16 16 17 17 17 17 17 17
9 9 9 8 8 9 9 7 6 8 9 11 11 12 12 13 14 14 12 11 10 11 10 6 7 10 10 9 10 13 13 14 15 16 16 16 17 17 17 16 16 17 18
12 12 12 11 10 10 11 10 9 10 15 16 13 12 15 19 20 19 14 14 15 14 11 13 14 16 19 18 14 16 14 13 14 15 16 16 15 13 14 15 17 18 19
14 15 15 16 16 14 14 13 14 13 17 22 22 22 17 17 19 18 19 21 16 19 16 16 20 17 18 18 18 23 20 13 11 13 13 14 14 14 13 13 14 15 14
17 18 19 19 19 21 23 23 22 21 23 20 23 22 20 21 23 23 24 27 20 24 19 21 23 22 18 22 21 20 16 22 20 10 15 16 18 16 14 18 21 17 18
Wind_Direction
218 221 232 241 245 237 230 229 228 235 245 237 229 234 244 261 271 256 247 244 248 257 257 261 267 272 271 276 281 284 287 285 302 312 294 271 271 262 299 274 235 268 284
219 217 229 232 237 240 237 236 235 240 248 243 235 240 241 256 259 249 242 248 252 255 255 260 271 273 268 267 266 268 271 277 288 276 284 283 268 259 271 259 268 278 278
229 221 227 234 236 232 232 234 237 239 243 245 241 243 246 249 256 249 246 251 250 253 258 264 271 275 274 283 252 255 256 260 262 259 261 281 271 271 265 271 257 265 274
248 232 233 234 235 232 230 233 235 233 232 233 238 244 244 249 252 249 247 254 257 252 252 256 262 265 267 289 270 276 270 265 259 260 255 266 275 272 273 268 269 284 267
245 236 241 235 240 230 230 236 240 239 238 236 236 241 244 245 244 243 244 251 257 254 255 260 262 258 257 259 261 267 281 271 269 268 264 262 259 265 267 261 269 279 265
234 237 251 238 240 231 227 230 233 238 241 240 235 243 240 245 245 245 243 242 248 247 245 255 257 256 262 260 261 284 279 255 271 264 269 270 268 271 268 270 268 275 267
240 251 244 247 238 223 226 227 227 230 239 239 235 240 240 239 239 234 236 242 252 254 253 252 254 258 256 257 266 270 273 265 271 270 273 265 264 268 269 269 267 269 277
224 228 229 232 223 219 226 220 226 235 241 240 232 233 230 233 238 239 249 252 260 261 259 256 257 257 254 258 260 265 270 273 268 270 268 268 266 269 270 270 269 273 278
223 213 222 224 205 218 231 228 238 241 243 247 247 241 255 257 240 241 242 247 259 261 257 260 265 263 254 259 267 264 268 271 271 265 266 270 271 273 276 279 277 276 277
143 165 202 213 215 222 227 230 233 244 249 256 250 248 254 249 246 252 254 256 260 258 258 263 252 243 256 260 264 259 267 265 264 268 269 267 269 272 281 288 280 276 275
79 151 78 100 137 172 171 251 222 241 248 244 244 252 248 240 264 266 269 261 258 254 248 247 249 252 254 251 253 257 269 275 274 275 269 264 267 272 280 288 284 281 275
135 144 134 160 189 210 224 219 236 241 242 248 250 247 237 226 250 269 280 255 250 261 258 250 251 254 257 260 262 267 280 279 279 284 282 267 267 272 274 274 278 301 296
178 180 161 176 205 186 183 198 212 227 233 224 233 224 228 262 259 255 265 241 247 257 255 254 252 258 262 265 268 271 272 265 268 282 258 281 270 275 280 265 275 284 285
220 220 228 211 197 207 210 206 210 229 231 228 231 247 257 260 262 265 271 264 261 263 254 250 256 259 264 270 278 271 275 274 277 280 273 272 268 272 272 283 290 286 287
236 236 229 220 219 223 226 233 235 234 236 240 246 245 250 249 248 253 254 254 258 263 266 264 269 273 273 276 277 277 277 278 282 285 289 288 284 286 290 294 293 290 288
240 234 236 243 246 238 234 238 240 231 233 234 242 249 255 259 261 260 259 256 256 259 264 267 267 272 276 277 278 280 285 291 293 294 295 295 297 299 300 300 300 300 299
251 245 241 243 243 246 251 244 242 242 244 248 254 253 251 255 257 258 266 273 281 283 286 290 294 293 294 294 294 296 295 293 294 297 299 302 304 303 303 302 302 302 304
250 246 249 254 252 242 229 227 230 233 238 240 245 253 260 265 265 262 268 276 279 285 289 295 300 302 302 303 305 305 304 305 308 311 310 309 310 311 311 311 311 309 310
231 231 225 232 238 246 253 251 241 238 236 233 231 228 228 229 236 244 256 275 283 283 291 300 307 310 312 313 308 302 303 305 305 306 309 308 308 308 308 308 307 306 308
211 231 260 254 230 237 250 256 255 247 242 236 235 237 247 261 276 283 281 280 284 288 287 282 280 277 281 287 293 298 305 308 306 307 309 311 311 310 311 308 307 308 309
236 247 248 248 251 237 213 221 248 260 253 242 241 246 252 259 271 283 288 284 290 292 293 293 292 295 299 299 297 296 297 299 301 302 301 302 302 304 303 302 305 308 309
248 254 254 248 244 242 242 232 228 235 245 252 262 270 279 287 292 301 309 314 306 303 298 295 299 299 292 290 291 291 290 293 295 296 300 301 301 304 306 306 307 307 306
242 250 249 259 269 265 259 261 284 289 296 311 287 280 285 287 296 299 302 303 310 300 292 301 318 308 296 307 317 312 299 293 295 298 296 295 297 297 297 301 305 304 302
239 247 255 257 263 276 291 292 299 312 301 303 299 294 299 294 297 298 307 299 310 295 314 313 310 316 325 303 307 314 301 291 286 286 288 290 292 297 302 304 303 301 298
247 252 257 264 268 257 264 276 282 262 272 288 290 302 289 275 279 280 281 282 287 295 292 296 301 302 296 322 311 314 296 286 294 291 288 286 289 299 301 310 318 314 314
259 262 266 268 271 272 268 263 273 277 278 280 294 295 290 278 264 260 262 263 255 257 272 260 288 280 300 299 299 308 311 294 289 278 276 281 294 294 300 315 320 321 321
Height
3182 3183 3186 3188 3190 3192 3195 3197 3199 3201 3202 3202 3203 3203 3203 3205 3205 3205 3206 3206 3207 3207 3208 3208 3209 3208 3207 3207 3208 3206 3206 3206 3206 3205 3204 3202 3202 3202 3202 3202 3201 3201 3200
3178 3180 3182 3184 3186 3189 3192 3194 3196 3198 3198 3199 3199 3200 3201 3202 3203 3204 3204 3204 3205 3206 3207 3207 3206 3206 3206 3206 3205 3205 3205 3204 3204 3204 3203 3202 3202 3202 3202 3202 3201 3200 3199
3176 3178 3179 3181 3181 3184 3187 3190 3191 3193 3195 3196 3197 3199 3200 3200 3201 3202 3202 3203 3203 3204 3204 3204 3204 3204 3204 3204 3203 3203 3202 3203 3203 3203 3201 3200 3200 3201 3201 3200 3200 3199 3199
3169 3175 3176 3177 3179 3181 3183 3186 3188 3190 3191 3192 3194 3196 3196 3197 3199 3199 3200 3200 3201 3201 3202 3202 3201 3202 3201 3202 3201 3200 3201 3201 3201 3201 3201 3199 3199 3200 3200 3199 3199 3198 3197
3164 3168 3170 3173 3175 3175 3178 3181 3184 3185 3188 3190 3191 3191 3193 3195 3195 3196 3196 3197 3198 3198 3199 3199 3199 3199 3199 3199 3199 3199 3199 3199 3198 3197 3198 3198 3198 3197 3197 3197 3196 3196 3195
3157 3161 3162 3166 3170 3172 3174 3176 3178 3181 3183 3185 3186 3187 3189 3190 3190 3192 3193 3194 3194 3195 3195 3195 3195 3194 3195 3195 3196 3196 3195 3196 3195 3195 3194 3194 3195 3195 3194 3193 3193 3192 3192
3150 3151 3155 3158 3163 3166 3170 3171 3174 3176 3178 3180 3181 3182 3183 3185 3186 3187 3188 3189 3191 3191 3191 3191 3191 3191 3191 3192 3192 3192 3193 3193 3192 3192 3191 3191 3191 3190 3190 3188 3188 3188 3188
3143 3145 3149 3152 3157 3160 3164 3166 3169 3171 3172 3173 3175 3177 3176 3179 3181 3182 3183 3185 3186 3186 3186 3187 3187 3187 3187 3188 3189 3189 3189 3189 3189 3188 3187 3187 3187 3186 3185 3184 3184 3184 3183
3135 3139 3143 3146 3150 3156 3158 3161 3163 3166 3168 3169 3170 3171 3172 3173 3176 3177 3178 3179 3180 3180 3180 3181 3181 3182 3182 3183 3185 3184 3184 3183 3183 3183 3183 3182 3182 3182 3181 3180 3179 3178 3177
3133 3134 3140 3142 3145 3150 3153 3154 3157 3159 3161 3162 3165 3167 3168 3169 3169 3171 3171 3171 3172 3172 3173 3174 3174 3175 3176 3178 3178 3179 3178 3178 3178 3178 3178 3178 3177 3176 3175 3174 3171 3170 3170
3138 3139 3140 3142 3145 3149 3151 3152 3153 3155 3157 3157 3158 3161 3160 3162 3163 3163 3164 3164 3165 3166 3167 3167 3168 3169 3170 3171 3173 3173 3174 3173 3173 3172 3171 3170 3170 3169 3169 3168 3167 3165 3164
3140 3142 3144 3147 3148 3149 3150 3151 3154 3154 3155 3156 3157 3158 3159 3160 3161 3161 3161 3161 3162 3161 3161 3163 3162 3164 3165 3166 3168 3169 3168 3168 3167 3166 3165 3163 3164 3163 3163 3161 3162 3160 3159
3142 3143 3142 3144 3147 3149 3150 3151 3152 3152 3153 3154 3155 3156 3157 3158 3158 3158 3158 3158 3158 3159 3159 3159 3159 3160 3161 3162 3163 3163 3162 3162 3161 3160 3160 3159 3159 3159 3158 3157 3157 3156 3153
3141 3142 3143 3145 3145 3147 3148 3149 3150 3151 3151 3152 3152 3154 3155 3156 3156 3156 3157 3157 3156 3157 3157 3156 3157 3158 3158 3159 3159 3159 3158 3158 3157 3157 3157 3155 3154 3154 3154 3152 3151 3150 3148
3141 3142 3143 3144 3145 3146 3147 3147 3148 3148 3150 3150 3152 3152 3153 3153 3154 3155 3155 3156 3155 3156 3156 3154 3155 3156 3155 3155 3154 3155 3154 3153 3153 3153 3153 3152 3150 3148 3147 3147 3146 3145 3143
3139 3140 3142 3143 3144 3144 3145 3145 3146 3147 3149 3149 3150 3150 3151 3152 3151 3152 3153 3153 3152 3152 3153 3152 3151 3150 3151 3150 3152 3150 3149 3150 3150 3149 3149 3148 3146 3145 3144 3143 3143 3142 3140
3139 3139 3140 3142 3143 3144 3145 3145 3144 3145 3146 3147 3148 3148 3149 3150 3149 3150 3150 3150 3149 3148 3149 3149 3147 3147 3147 3148 3148 3147 3146 3146 3146 3145 3144 3143 3141 3140 3139 3139 3138 3136 3134
3137 3139 3139 3140 3142 3143 3142 3144 3144 3145 3145 3145 3146 3147 3148 3147 3148 3148 3148 3148 3147 3147 3147 3145 3144 3145 3147 3146 3146 3145 3144 3143 3142 3141 3140 3139 3138 3138 3137 3136 3135 3133 3131
3135 3137 3137 3139 3141 3142 3143 3144 3144 3144 3144 3145 3146 3147 3147 3147 3147 3147 3147 3147 3147 3146 3145 3143 3142 3142 3143 3144 3143 3143 3142 3142 3141 3140 3139 3137 3137 3136 3135 3134 3132 3130 3128
3135 3136 3138 3139 3139 3139 3141 3141 3142 3142 3143 3143 3144 3144 3145 3145 3145 3145 3146 3145 3144 3143 3142 3142 3141 3141 3141 3140 3141 3141 3139 3138 3139 3136 3136 3136 3135 3134 3133 3131 3129 3127 3125
3134 3135 3136 3137 3138 3139 3139 3140 3142 3142 3142 3144 3143 3144 3143 3144 3144 3144 3143 3142 3142 3141 3139 3138 3139 3137 3137 3136 3136 3137 3136 3136 3136 3134 3133 3132 3133 3131 3130 3128 3126 3124 3121
3134 3135 3135 3134 3136 3137 3139 3139 3138 3139 3140 3140 3141 3141 3140 3139 3140 3141 3141 3139 3139 3138 3137 3136 3136 3135 3135 3134 3133 3132 3132 3131 3132 3131 3131 3129 3127 3127 3126 3124 3122 3120 3118
3132 3134 3133 3133 3134 3135 3136 3135 3136 3136 3137 3138 3137 3138 3138 3137 3136 3137 3136 3136 3138 3137 3136 3135 3133 3133 3131 3130 3130 3129 3127 3126 3127 3127 3126 3125 3123 3124 3123 3121 3118 3117 3115
3129 3129 3129 3130 3131 3132 3132 3132 3132 3132 3132 3133 3133 3134 3134 3134 3132 3132 3134 3134 3134 3133 3132 3132 3131 3130 3127 3127 3125 3124 3123 3123 3123 3123 3123 3121 3120 3119 3118 3117 3115 3113 3111
3125 3125 3126 3126 3126 3127 3128 3129 3129 3130 3130 3130 3129 3129 3128 3128 3128 3128 3128 3127 3126 3126 3128 3127 3125 3125 3123 3122 3121 3120 3118 3118 3118 3118 3118 3117 3117 3116 3114 3112 3110 3108 3106
3120 3120 3120 3121 3122 3123 3124 3125 3124 3124 3123 3123 3123 3122 3122 3121 3120 3120 3121 3120 3119 3119 3120 3121 3121 3119 3118 3116 3115 3115 3114 3112 3112 3112 3113 3112 3111 3110 3109 3108 3106 3104 3102